Weather in Kytlym

Russia / Sverdlovsk Oblast     59°30′00″N   59°12′07″E
temp.,
°C
wind,
m/s
gust,
m/s
humid.,
%
clouds,
%
prec.,
mm/h
press.,
hPa
HPBL,
m
22 january, sat
sat2223:00−11w349599 0.0 102179
02:00−11w349595 0.0 1022103
05:00−10w3391100 0.0 1023107
08:00−10wnw2391100 0.0 1024101
11:00−10w2390100 0.0 1025102
14:00−8w238934 0.0 1026159
17:00−14w229735 0.0 102921
20:00−16w229898 0.0 103031
23 january, sun
sun2323:00−16wnw229877 0.0 103130
02:00−17w229858 0.0 103229
05:00−17wnw229889 0.0 103329
08:00−16wnw329765 0.0 103333
11:00−13wnw229514 0.0 103338
14:00−8wnw2290100 0.0 103389
17:00−11w2294100 0.0 103522
20:00−10w2390100 0.0 103552
24 january, mon
mon2423:00−10w2392100 0.0 103565
02:00−9w2395100 0.1 103593
05:00−10w2395100 0.1 103495
08:00−10w2396100 0.1 1034115
11:00−12w239653 0.1 103592
14:00−9w349185 0.0 1033322
17:00−13w339752 0.1 103459
20:00−15wnw339759 0.0 103457
25 january, tue
tue2523:00−16w3397100 0.0 103365
02:00−14w3596100 0.0 1031119
05:00−13w3692100 0.0 1029172
08:00−12wnw3691100 0.0 1028212
11:00−11w3590100 0.0 1028197
14:00−10w3588100 0.0 1027301
17:00−10w3591100 0.0 1027202
20:00−12w349497 0.0 102786
26 january, wed
wed2623:00−14w3396100 0.0 102859
02:00−13w3396100 0.0 102857
05:00−14w3394100 0.0 102741
08:00−15w329394 0.0 102736
11:00−13w33855 0.0 102663
14:00−9w338493 0.0 1025138
17:00−14w329398 0.0 102632
20:00−15w3295100 0.0 102634